Location: Kawakawa
(35.3830°S, 174.0670°E)
Time: 18:37:26
(UTC+12:00)

Cosmos 1633 - Pass Details

Date: 15 August 2020
Orbit: 464 x 479 km, 82.5° (Epoch: 25 September)

Event Time Altitude Azimuth Distance (km) Brightness Sun altitude
Rises 18:19:30 0° 188° (S) 2,561 6.2 -6.3°
Reaches altitude 10° 18:21:38 10° 188° (S) 1,670 5.2 -6.7°
Maximum altitude 18:25:17 85° 275° (W) 486 2.6 -7.4°
Drops below altitude 10° 18:28:51 10° 4° (N) 1,634 5.3 -8.1°
Sets 18:30:55 0° 4° (N) 2,499 6.3 -8.5°
